Satellite-Ground Cal/Val Region Overpasses Predictions

Prediction of Satellite NPP Overpassing Cal/Val Region: PacNW

Region Location: (Latitude: 10.00, Longitude: 139.50) to (Latitude: 22.70, Longitude: 165.60).

Table of predicted overpasses for the next 14.0 days since TLE Epoch: 6/28/2019
Interval Starting Time Starting Location Ending Time Ending Location
1 06/29/2019 03:17:34 ( 10.00, 150.32) 06/29/2019 03:21:10 ( 22.68, 147.30)
2 06/29/2019 15:49:28 ( 22.67, 147.55) 06/29/2019 15:53:03 ( 10.05, 144.55)
3 06/30/2019 02:58:33 ( 10.01, 155.08) 06/30/2019 03:02:09 ( 22.69, 152.06)
4 06/30/2019 15:30:27 ( 22.66, 152.31) 06/30/2019 15:34:02 ( 10.04, 149.30)
5 07/01/2019 02:39:32 ( 10.01, 159.83) 07/01/2019 02:43:08 ( 22.69, 156.81)
6 07/01/2019 15:11:25 ( 22.66, 157.06) 07/01/2019 15:15:00 ( 10.04, 154.06)
7 07/02/2019 02:20:30 ( 10.02, 164.59) 07/02/2019 02:24:06 ( 22.70, 161.57)
8 07/02/2019 14:52:24 ( 22.65, 161.82) 07/02/2019 14:55:59 ( 10.03, 158.82)
9 07/03/2019 03:42:59 ( 10.03, 143.97) 07/03/2019 03:46:34 ( 22.65, 140.96)
10 07/03/2019 14:34:30 ( 18.66, 165.59) 07/03/2019 14:36:57 ( 10.03, 163.57)
11 07/03/2019 16:14:52 ( 22.64, 141.20) 07/03/2019 16:16:51 ( 15.66, 139.50)
12 07/04/2019 03:23:57 ( 10.03, 148.72) 07/04/2019 03:27:32 ( 22.65, 145.72)
13 07/04/2019 15:55:50 ( 22.70, 145.97) 07/04/2019 15:59:26 ( 10.02, 142.95)
14 07/05/2019 03:04:56 ( 10.04, 153.48) 07/05/2019 03:08:31 ( 22.66, 150.48)
15 07/05/2019 15:36:48 ( 22.69, 150.73) 07/05/2019 15:40:24 ( 10.01, 147.71)
16 07/06/2019 02:45:54 ( 10.05, 158.24) 07/06/2019 02:49:29 ( 22.67, 155.23)
17 07/06/2019 15:17:47 ( 22.68, 155.48) 07/06/2019 15:21:23 ( 10.00, 152.46)
18 07/07/2019 02:26:53 ( 10.05, 162.99) 07/07/2019 02:30:28 ( 22.67, 159.99)
19 07/07/2019 14:58:46 ( 22.68, 160.24) 07/07/2019 15:02:21 ( 10.06, 157.23)
20 07/08/2019 02:10:27 ( 19.22, 165.60) 07/08/2019 02:11:26 ( 22.68, 164.74)
21 07/08/2019 03:49:20 ( 10.00, 142.39) 07/08/2019 03:52:46 ( 22.10, 139.51)
22 07/08/2019 14:39:44 ( 22.67, 164.99) 07/08/2019 14:43:19 ( 10.05, 161.99)
23 07/08/2019 16:21:14 ( 22.66, 139.62) 07/08/2019 16:21:21 ( 22.25, 139.51)
24 07/09/2019 03:30:19 ( 10.01, 147.14) 07/09/2019 03:33:55 ( 22.69, 144.12)
25 07/09/2019 16:02:13 ( 22.66, 144.37) 07/09/2019 16:05:48 ( 10.04, 141.37)
26 07/10/2019 03:11:17 ( 10.02, 151.90) 07/10/2019 03:14:53 ( 22.70, 148.88)
27 07/10/2019 15:43:11 ( 22.65, 149.13) 07/10/2019 15:46:46 ( 10.03, 146.12)
28 07/11/2019 02:52:16 ( 10.03, 156.65) 07/11/2019 02:55:51 ( 22.65, 153.65)
29 07/11/2019 15:24:10 ( 22.64, 153.88) 07/11/2019 15:27:45 ( 10.02, 150.88)
30 07/12/2019 02:33:14 ( 10.03, 161.41) 07/12/2019 02:36:49 ( 22.66, 158.40)


NCC Satellite Cal/Val Overpasses Prediction Service
